Retour au catalogue

ARIANE 5 DEB

SYLDA

ActifGTO
NORAD 27717·DEBRIS·🇫🇷 France

Lancé Apr 9, 2003 depuis Guiana Space Centre

Loading…

TLE

VieillissantSource: Space-Track

Époque: Sep 14, 2026, 13:18 UTC

1 27717U 03013D   26257.55460413  .00000094  00000-0  82541-2 0  9996
2 27717   1.1565 221.7399 7088078  51.5120 163.6931  2.22484923190510

Suivez ARIANE 5 DEB en temps réel avec AllMySat

Download on the App Store